Weather History for Price, UT

Change the Weather History Date:

Monday, January 21, 2013

  Actual Average Record
Temperature  
Mean Temperature 20 °F -  
Max Temperature 30 °F 34 °F 51 °F (1981)
Min Temperature 10 °F 17 °F -3 °F (1984)
Degree Days  
Heating Degree Days 45    
Moisture  
Dew Point 7 °F    
Average Humidity 60    
Maximum Humidity 74    
Minimum Humidity 43    
Precipitation  
Precipitation 0.00 in - - ()
Sea Level Pressure  
Sea Level Pressure 30.54 in    
Wind  
Wind Speed 0 mph (ENE)    
Max Wind Speed 5 mph    
Max Gust Speed -    
Visibility 10 miles    
Events      
Averages and records for this station are not official NWS values.
T = Trace of Precipitation, MM = Missing Value Source: NWS Daily Summary

Daily Weather History Graph

Daily Weather History Graph

Search for Another Location

Airport:

Trip Planner

Search our weather history database for the weather conditions in past years. The results will help you decide how hot, cold, wet, or windy it might be!

Date:

Astronomy

Jan. 21, 2013 Rise Set
Actual Time 7:38 AM MST 5:30 PM MST
Civil Twilight 7:09 AM MST 5:59 PM MST
Nautical Twilight 6:36 AM MST 6:32 PM MST
Astronomical Twilight 6:04 AM MST 7:04 PM MST
Moon 1:12 PM MST 3:10 AM MST
Length of Visible Light 10h 49m
Length of Day
9h 51m
Waxing Gibbous, 75% of the Moon is Illuminated
Jan 21
Waxing Gibbous
Jan 26
Full
Feb 3
Last Quarter
Feb 10
New
Feb 17
First Quarter

Hourly Weather History & Observations

Time (MST) Temp. Windchill Dew Point Humidity Pressure Visibility Wind Dir Wind Speed Gust Speed Precip Events Conditions
12:53 AM 10.9 °F - 1.9 °F 67% 30.52 in 10.0 mi Calm Calm - N/A   Clear
1:53 AM 10.9 °F - 1.9 °F 67% 30.51 in 10.0 mi Calm Calm - N/A   Clear
2:53 AM 12.0 °F - 1.9 °F 64% 30.52 in 10.0 mi Calm Calm - N/A   Clear
3:53 AM 12.0 °F - 3.0 °F 67% 30.51 in 10.0 mi Calm Calm - N/A   Clear
4:53 AM 10.0 °F - 1.9 °F 70% 30.53 in 10.0 mi Calm Calm - N/A   Clear
5:53 AM 10.0 °F - 1.0 °F 67% 30.56 in 10.0 mi Calm Calm - N/A   Clear
6:53 AM 12.9 °F - 3.0 °F 65% 30.57 in 10.0 mi Calm Calm - N/A   Clear
7:53 AM 12.0 °F - 5.0 °F 73% 30.59 in 10.0 mi Calm Calm - N/A   Clear
8:53 AM 19.9 °F - 6.1 °F 55% 30.57 in 10.0 mi Calm Calm - N/A   Clear
9:53 AM 24.1 °F - 7.0 °F 48% 30.59 in 10.0 mi Calm Calm - N/A   Clear
10:53 AM 28.0 °F - 10.0 °F 47% 30.58 in 10.0 mi Calm Calm - N/A   Clear
11:53 AM 25.0 °F - 10.0 °F 53% 30.56 in 10.0 mi Calm Calm - N/A   Clear
12:53 PM 28.0 °F 24.2 °F 12.0 °F 51% 30.54 in 10.0 mi SSW 3.5 mph - N/A   Clear
1:53 PM 30.9 °F - 12.0 °F 46% 30.52 in 10.0 mi Calm Calm - N/A   Clear
2:53 PM 30.9 °F - 10.9 °F 43% 30.50 in 10.0 mi Calm Calm - N/A   Clear
3:53 PM 30.9 °F 27.5 °F 12.9 °F 47% 30.49 in 10.0 mi SSE 3.5 mph - N/A   Clear
4:53 PM 30.0 °F - 10.9 °F 45% 30.51 in 10.0 mi Calm Calm - N/A   Clear
5:53 PM 24.1 °F 18.2 °F 12.0 °F 60% 30.52 in 10.0 mi ENE 4.6 mph - N/A   Clear
6:53 PM 24.1 °F - 12.0 °F 60% 30.52 in 10.0 mi Calm Calm - N/A   Clear
7:53 PM 16.0 °F 10.4 °F 7.0 °F 68% 30.55 in 10.0 mi North 3.5 mph - N/A   Clear
8:53 PM 14.0 °F - 7.0 °F 74% 30.53 in 10.0 mi Calm Calm - N/A   Clear
9:53 PM 12.0 °F 5.9 °F 5.0 °F 73% 30.55 in 10.0 mi North 3.5 mph - N/A   Clear
10:53 PM 12.9 °F - 5.0 °F 71% 30.52 in 10.0 mi Calm Calm - N/A   Clear
11:53 PM 15.1 °F - 7.0 °F 70% 30.53 in 10.0 mi Calm Calm - N/A   Clear